Location: Clifton Park
(41.4873°N, 81.8024°W)
Time: 10:29:04
(UTC+00:00)

STARLINK-74 - Pass Details

Date: 21 January 2020
Orbit: 528 x 531 km, 53.0° (Epoch: 16 February)

Event Time Altitude Azimuth Distance (km) Brightness Sun altitude
Exits shadow 10:41:20 65° 165° (SSE) 600 3.7 -23.6°
Maximum altitude 10:41:35 67° 139° (SE) 590 3.8 -23.5°
Drops below altitude 10° 10:45:42 10° 56° (ENE) 1,827 6.9 -22.7°
Sets 10:47:58 0° 54° (NE) 2,733 7.9 -22.3°
